DELTA 1 DEB, 12581

Orbit data source: Space-Track

DELTA 1 DEB, 12581 is space debris in LEO originally from a launch on Thu, 29 Jul 1976 UTC launched from the Air Force Western Test Range (AFWTR). Debris objects in space refer to the collection of defunct objects orbiting the Earth. Examples of debris include non-operational satellites, rocket bodies, and fragments generated from explosions, collisions, or faulty payload assembly.

Loading next visibility...
Identifier
12581, 1976-077DZ
Orbit
LEO
Country
Flag of USUS
Related business
Manufacturer
Unknown
Mission
Spacecraft
Bus & Motor
Unknown
Mass
Unknown
Launch date (UTC)
1976-07-29 (49 years ago)
Launch vehicle
Unknown
Launch site
Air Force Western Test Range (AFWTR)
Object type
Payload
Rocket body
Debris
Shape & HBR
Unknown shape, 0.1 m
Radar Cross Section
Small (<0.1 m²)

Expand to show TLE details & history
Last TLE update: 5 hours ago

TLE from 5 hours ago
0 DELTA 1 DEB
1 12581U 76077DZ  25343.67047094  .00000038  00000-0  10969-2 0  9996
2 12581 102.4788 234.0657 0380977  96.4360 300.3321 11.70240194 43220
Epoch: 2025-12-09T16:05Z
TLE epoch observation values (Epoch: 2025-12-09T16:05:28.689Z)
Latitude
32.09474°
Longitude
-93.89524°
Altitude
1,672.07 km
Speed
7.104 km/s
True Right ascension
15h 04m 30s
True Declination
31° 57' 28"
Sunlit
Object was in daylight at epoch
Visualization orbit readout
Latitude
Unknown
Longitude
Unknown
Altitude
Unknown
Speed
Unknown
Apparent Right ascension
Unknown
Apparent Declination
Unknown
Sunlit
N/A
Visualization observer readout
Local Sidereal Time
19:07:18
Azimuth
Unknown
Elevation
Unknown
Doppler factor
Unknown
Orbital elements
Apogee altitude
2,126.732 km
Perigee altitude
1,502.482 km
Semi-major axis
8,192.744 km
Eccentricity
0.0381
Inclination
102.4788°
RAAN
234.0657°
Arg. of periapsis
96.436°
True anomaly
296.4742°
Mean anomaly
300.3321°
Eccentric anomaly
298.41219°
Mean motion
2.92684 °/min
Orbital period
123 mins
BSTAR
0.0010969
Loading maneuver chart data...
Computing Atmospheric mass density...
Loading historical data...
Loading historical data...
Loading historical data...
Loading historical data...
Loading historical data...
Loading historical data...
Loading historical data...

Documentation

Showing up to 5 results
|